Terminal Aerodrome Forecast
Issued by NWS

Home | Current Version | Previous Version | Text Only | Print | Product List | Glossary On
Versions: 1 2 3 4 5 6 7 8 9 10 11 12 13 14 15 16 17 18 19 20 21 22 23 24 25 26 27
000
FTAK31 PANC 272115 AAA
TAFADQ
TAF AMD
PADQ 272115Z 2721/2818 10010KT 6SM -RA SCT008 OVC012
      TEMPO 2721/2723 BKN008 OVC012
     FM272300 12015G20KT 3SM -RA BKN005 OVC012
     FM280300 12011KT 3SM -RA OVC005
     FM280900 08010KT 5SM -SHRA BR OVC010
     FM281200 35010KT 5SM RA BR OVC025=

USA.gov is the U.S. government's official web portal to all federal, state and local government web resources and services.